Voltar ao catálogo

COSMOS 2499 DEB

AtivoPO
NORAD 60612·DEBRIS·🇷🇺 Russia

Lançado May 23, 2014 de Plesetsk Cosmodrome

Loading…

Próximas Passagens (próximas 24 horas)

TLE

EnvelhecendoSource: Space-Track

Época: Sep 10, 2026, 07:19 UTC

1 60612U 14028BY  26253.30547715  .00004207  00000-0  71623-2 0  9994
2 60612  82.1420  93.9419 0304955 298.8541  58.2293 13.28247969175140

Acompanhe COSMOS 2499 DEB em tempo real com AllMySat

Download on the App Store